Regional Weather Roundup
Issued by NWS

Home | Current Version | Previous Version | Graphics & Text | Print | Product List | Glossary On
Versions: 1 2 3 4 5 6 7 8 9 10 11 12 13 14 15 16 17 18 19 20 21 22 23 24 25 26 27 28 29 30 31 32 33 34 35 36 37 38 39 40 41 42 43 44 45 46 47 48 49 50
000
ASUS43 KDMX 240508
RWRIA

WEATHER ROUNDUP FOR IOWA
NATIONAL WEATHER SERVICE DES MOINES IA
1200 AM CDT TUE MAY 24 2016

NOTE: "FAIR" INDICATES FEW OR NO CLOUDS BELOW 12,000 FEET WITH NO
SIGNIFICANT WEATHER AND/OR OBSTRUCTIONS TO VISIBILITY.

* - THESE STATIONS ARE NOT NWS STATIONS...THUS NOT UNDER NWS
QUALITY CONTROL.  THEY ALSO DO NOT REPORT WEATHER SUCH
AS PRECIPITATION OR FOG.

IAZ001>003-012>014-020>022-031>034-043>046-240600-
   NORTHWEST IOWA

CITY           SKY/WX    TMP DP  RH WIND       PRES   REMARKS
CARROLL *      PTCLDY    61  59  94 CALM      29.87S
CHEROKEE *     LGT RAIN  64  64 100 SE15G24   29.76F
DENISON *      LGT RAIN  63  61  94 CALM      29.86R
LE MARS *      CLEAR     66  64  94 S7        29.81R
ORANGE CITY *  CLEAR     64  63  94 CALM      29.81R
SHELDON *      CLEAR     64  63  94 S13       29.79S
SIOUX CITY       N/A    N/A N/A N/A MISG      29.80R
SPENCER        PTCLDY    65  61  87 S13       29.81F
STORM LAKE *   MOCLDY    64  61  88 S9G16     29.85F FOG
$$

IAZ055>058-069>071-079>083-090>094-240600-
   SOUTHWEST IOWA

CITY           SKY/WX    TMP DP  RH WIND       PRES   REMARKS
ATLANTIC *     CLOUDY    66  61  82 S8        29.86S
AUDUBON *      CLEAR     61  57  88 CALM      29.88R
CLARINDA *       N/A     68  63  83 MISG      29.89R
COUNCIL BLFS * CLOUDY    64  63  94 S10       29.84F
CRESTON *      CLOUDY    66  63  88 S10       29.89R
HARLAN  *        N/A    N/A N/A N/A MISG        N/A
LAMONI         CLOUDY    67  61  81 S8        29.88R
RED OAK *      CLOUDY    68  63  83 S7        29.87R
SHENANDOAH *   CLOUDY    68  63  83 S6        29.87S
$$

IAZ047>049-059>061-072>074-084-240600-
   CENTRAL IOWA

CITY           SKY/WX    TMP DP  RH WIND       PRES   REMARKS
AMES           CLOUDY    61  57  87 NW3       29.87R
ANKENY *       PTCLDY    63  61  94 S3        29.86R
BOONE *        PTCLDY    64  59  82 W3        29.87R
CHARITON *     MOCLDY    64  61  88 S7        29.88R
DES MOINES     CLOUDY    67  60  78 S6        29.87R
GRINNELL*      MOCLDY    66  54  63 S8        29.88R
KNOXVILLE *    CLEAR     66  57  72 SE3       29.86R
MARSHALLTOWN   CLOUDY    67  55  65 S7        29.86R
NEWTON *       CLOUDY    64  55  72 S7        29.87R
PELLA *        CLOUDY    68  55  64 SE6       29.88R
PERRY *          N/A     64  61  88 CALM      29.88R
$$

IAZ004>006-015-016-023>025-035-036-240600-
   NORTH CENTRAL IOWA

CITY           SKY/WX    TMP DP  RH WIND       PRES   REMARKS
ALGONA *       PTCLDY    64  61  88 S14       29.85S
CLARION *      MOCLDY    64  61  88 S10       29.87R
ESTHERVILLE    CLOUDY    64  62  93 S15       29.81S
FORT DODGE *   PTCLDY    64  57  77 S10       29.87S
MASON CITY     CLOUDY    66  61  84 S9        29.86F
FOREST CITY *  PTCLDY    64  59  82 S12G17    29.85R
WEBSTER CITY * MOCLDY    63  61  94 SW6       29.86R
IOWA FALLS *   MOCLDY    64  59  82 SW6       29.89R
$$

IAZ007>011-017>019-026>030-037>042-050>054-066-240600-
   NORTHEAST IOWA

CITY           SKY/WX    TMP DP  RH WIND       PRES   REMARKS
CEDAR RAPIDS   PTCLDY    67  53  61 S9        29.88S
CHARLES CITY * CLOUDY    68  64  88 SW5       29.87S
CLINTON *      PTCLDY    66  48  52 S6        29.92R
DECORAH *      PTCLDY    70  54  56 S6G13     29.87R
DUBUQUE        CLOUDY    60  49  66 S8        29.91R
MONTICELLO *   CLEAR     66  50  55 S8        29.89S
OELWEIN *      CLOUDY    66  54  63 S10       29.88S
WATERLOO       MOCLDY    69  53  56 S8        29.86R
$$

IAZ064-065-067-068-078-240600-
   EAST CENTRAL IOWA

CITY           SKY/WX    TMP DP  RH WIND       PRES   REMARKS
DAVENPORT      PTCLDY    67  48  50 S7        29.91S
IOWA CITY      PTCLDY    65  53  65 SE3       29.90S
MT. PLEASANT * CLEAR     68  54  60 S8        29.91R
MUSCATINE *    CLEAR     68  50  52 S5        29.90S
QUAD CITIES    PTCLDY    67  48  50 S6        29.90R
$$

IAZ062-063-075>077-085>089-095>099-240600-
   SOUTHEAST IOWA

CITY           SKY/WX    TMP DP  RH WIND       PRES   REMARKS
BURLINGTON     CLOUDY    66  51  58 S9        29.90F
FAIRFIELD *      N/A    N/A N/A N/A MISG        N/A
FORT MADISON * CLEAR     66  52  59 S6        29.91F
KEOKUK *       CLEAR     66  52  59 S5        29.90F
OSKALOOSA *      N/A     66  55  68 S9        29.88R
OTTUMWA        PTCLDY    67  54  63 S9        29.88R
WASHINGTON *   CLEAR     64  54  68 S8        29.90S
$$

ABBREVIATIONS USED IN REMARKS
   TC - TEMPERATURES IN CELSIUS
  WCI - WIND CHILL INDEX
   HX - HEAT INDEX
  VSB - VISIBILITY
$$




USA.gov is the U.S. government's official web portal to all federal, state and local government web resources and services.